Welcome to the New NWS' Forecast!
Most changes are behind the scenes, but click here for differences you might notice.

Regional Weather Roundup (RWR)

Issued by National Weather Service (NWS)

                            
000
ASUS42 KTBW 181617
RWRFL 
FLORIDA REGIONAL WEATHER ROUNDUP
NATIONAL WEATHER SERVICE TAMPA BAY RUSKIN FL
1100 AM EST SUN NOV 18 2018

NOTE: "FAIR" INDICATES FEW OR NO CLOUDS BELOW 12,000 FEET WITH NO
SIGNIFICANT WEATHER AND/OR OBSTRUCTIONS TO VISIBILITY.

FLZ001>010-012>015-112-114-115-181700-
PANHANDLE FLORIDA
  
CITY           SKY/WX    TMP DP  RH WIND       PRES   REMARKS
PENSACOLA      FAIR      64  46  52 NE5       30.26S                  
CRESTVIEW      FAIR      63  49  60 E5        30.28S                  
DUKE FIELD     FAIR      63  48  58 NE3       30.25F                  
VALPARAISO     FAIR      64  48  56 NE3       30.25F                  
MARY ESTHER    MOSUNNY   65  49  56 CALM      30.24F                  
PANAMA CITY    FAIR      66  47  50 N5        30.25S                  
TYNDALL AFB    FAIR      65  47  53 E3        30.27S                  
APALACHICOLA   FAIR      65  48  54 E6        30.24S                  

STATION/POSITION SKY/WX   TEMP    WIND        PRES    WAVE   SWELL
                          AIR SEA DIR/SP/G            HT/PER HT/PER
                          (F)     (DEG/KT/KT) (MB)    (FT/S) (FT/S)
30.1N   87.6W              63      50/  8/ 12 1024.8F   1/ 3
29.2N   88.2W                 70   70/  6/  8 1024.4
PANAMA CITY BEAC           62 68   30/  3/  5 1024.9R
TOWER C                    64      40/  8/  9 1024.0F

$$
FLZ011-016>038-118-127-128-134-139-239-181700-
NORTH FLORIDA
  
CITY           SKY/WX    TMP DP  RH WIND       PRES   REMARKS
MARIANNA       FAIR      62  50  64 CALM      30.25F                  
TALLAHASSEE    FAIR      66  51  58 CALM      30.24S                  
PERRY          FAIR      69  56  64 NE5       30.24S                  
LIVE OAK       SUNNY     68  57  68 NE3       30.23S                  
CROSS CITY     FAIR      70  59  66 NE7       30.22S                  
LAKE CITY      FAIR      70  57  64 NE5       30.23R                  
GAINESVILLE    FAIR      73  59  61 N8        30.23F                  
WILLISTON        N/A    N/A N/A N/A MISG        N/A                   
MAYPORT NAS    FAIR      71  63  75 N9        30.20F                  
JACKSONVILLE   PTSUNNY   72  61  68 N5        30.20F                  
JAX NAS        PTSUNNY   69  60  73 NW7       30.21F                  
JAX CECIL      SUNNY     77  61  57 NE7       30.21S                  
FERNANDINA BEA PTSUNNY   68  63  82 N9        30.21S                  
ST AUGUSTINE   FAIR      72  63  73 N10       30.20F                  
PALM COAST     MOSUNNY   72  64  78 N5        30.19S                  

STATION/POSITION SKY/WX   TEMP    WIND        PRES    WAVE   SWELL
                          AIR SEA DIR/SP/G            HT/PER HT/PER
                          (F)     (DEG/KT/KT) (MB)    (FT/S) (FT/S)
SHELL POINT      NOT AVBL
KEATON BEACH               67      30/  4/  6 1023.7F
CEDAR KEY                  68      70/  5/  6 1023.1F
FERNANDINA                 67 65  350/  5/  8 1023.9F
30.7N   81.3W                 67                N/A     4/11   2/11
MAYPORT                    67 68  360/  7/ 10 1023.1F
31.4N   80.9W              65 69  130/  4/  8 1023.6R   4/10   3/10
ST AUGUSTINE               67 69  360/ 15/ 16 1022.5F

$$
FLZ040-043>046-052-053-057-058-063-144-181700-
INTERIOR CENTRAL FLORIDA
  
CITY           SKY/WX    TMP DP  RH WIND       PRES   REMARKS
OCALA          FAIR      72  62  71 N6        30.21F                  
LEESBURG       FAIR      72  62  71 N6        30.20S                  
SANFORD        FAIR      76  66  71 N6        30.18S                  
ORLANDO EXEC   FAIR      77  63  61 NE5       30.18S                  
ORLANDO INTL   PTSUNNY   77  62  59 N6        30.18S                  
KISSIMMEE      FAIR      77  62  59 N3        30.19S                  
WINTER HAVEN   CLOUDY    74  64  71 N5        30.19S                  
LAKELAND       PTSUNNY   70  66  88 N3        30.19S                  
BARTOW         CLOUDY    72  63  73 NE5       30.18                   
SEBRING        FAIR      78  64  62 N3        30.16F                  
OKEECHOBEE     CLOUDY    77  64  65 CALM      30.16S                  

$$
FLZ041-047-054-059-064-141-147-181700-
EAST CENTRAL FLORIDA
  
CITY           SKY/WX    TMP DP  RH WIND       PRES   REMARKS
ORMOND BEACH   MOSUNNY   73  66  78 N8        30.19S                  
DAYTONA BEACH  PTSUNNY   76  68  76 N6        30.18F                  
DELAND         FAIR      73  64  73 N7        30.18F                  
NEW SMYRNA BEA MOSUNNY   75  66  73 N10       30.19S                  
JFK SPACE CTR  FAIR      78  63  60 CALM        N/A                   
CAPE CANAVERAL FAIR      79  65  61 NE6       30.15S                  
PATRICK AFB    FAIR      75  64  68 NW5       30.16S                  
MELBOURNE      FAIR      80  64  58 NE9       30.16S                  
VERO BEACH     CLOUDY    80  64  58 SE10      30.16S                  
FT PIERCE      CLOUDY    79  63  57 SE12      30.16R                  
STUART         PTSUNNY   81  63  54 E12       30.17R                  

STATION/POSITION SKY/WX   TEMP    WIND        PRES    WAVE   SWELL
                          AIR SEA DIR/SP/G            HT/PER HT/PER
                          (F)     (DEG/KT/KT) (MB)    (FT/S) (FT/S)
28.5N   80.2W              77     100/ 14/ 17 1021.6F   5/ 9   3/ 9
28.9N   78.5W              75 81   70/ 12/ 17 1022.3F
TRIDENT PIER               76 76  320/  3/  6 1022.8S
28.4N   80.5W                 75                N/A     3/10   2/11
27.5N   80.2W                 77                N/A     3/10   2/11

$$
FLZ050-056-061-142-242-148-248-149-249-151-251-155-255-
160-260-181700-
WEST CENTRAL FLORIDA
  
CITY           SKY/WX    TMP DP  RH WIND       PRES   REMARKS
CRYSTAL RIVER  FAIR      72  63  73 NE3       30.20F                  
BROOKSVILLE    FAIR      74  62  66 E3        30.20S                  
CLEARWATER AIR CLOUDY    70  61  73 E5        30.18F                  
ST PETE CLEARW CLOUDY    69  63  81 NE5       30.19S                  
TAMPA INTL     PTSUNNY   72  62  71 VRB5      30.19S                  
TAMPA EXEC     CLOUDY    72  63  73 CALM      30.20S                  
PLANT CITY     CLOUDY    70  63  78 N3        30.21S                  
MACDILL AFB    CLOUDY    69  61  76 NE6         N/A                   
PETER O KNIGHT CLOUDY    68  63  83 NE3       30.19S                  
ST PETERSBURG  CLOUDY    68  62  81 NE7       30.17S                  
SARASOTA       CLOUDY    75  63  66 E7        30.16S                  
VENICE         CLOUDY    75  63  64 E7        30.17F                  

STATION/POSITION SKY/WX   TEMP    WIND        PRES    WAVE   SWELL
                          AIR SEA DIR/SP/G            HT/PER HT/PER
                          (F)     (DEG/KT/KT) (MB)    (FT/S) (FT/S)
CLEARWATER BEACH           70 72   10/  4/  5 1022.4S
MIDDLE TAMPA BAY           65      50/ 10/ 12 1022.3F
VENICE                     72 74   70/  7/  8 1021.6F

$$
FLZ066-069-070-075>078-162-262-165-265-181700-
SOUTHWEST FLORIDA AND KEYS
  
CITY           SKY/WX    TMP DP  RH WIND       PRES   REMARKS
PUNTA GORDA    CLOUDY    72  62  71 CALM      30.18F                  
FT MYERS       CLOUDY    74  63  68 E6        30.15F                  
SOUTHWEST INTL CLOUDY    75  62  64 NE3       30.16S                  
NAPLES         CLOUDY    77  63  61 NE8       30.14F                  
MARCO ISLAND   FAIR      78  66  66 E8        30.15F                  
IMMOKALEE      CLOUDY    79  64  61 NE7       30.16S                  
MARATHON       PTSUNNY   80  69  69 E10       30.10S                  
KEY WEST NAS   LGT RAIN  79  70  74 NE8       30.10F                  
KEY WEST INTL  CLOUDY    79  71  76 NE7       30.10F                  

STATION/POSITION SKY/WX   TEMP    WIND        PRES    WAVE   SWELL
                          AIR SEA DIR/SP/G            HT/PER HT/PER
                          (F)     (DEG/KT/KT) (MB)    (FT/S) (FT/S)
NAPLES                     75 74   60/  5/  7 1020.6F
26.0N   85.6W              74 79  360/ 12/ 16 1021.2
DRY TORTUGAS               78      70/ 15/ 17 1019.2F
SAND KEY                   77                 1019.2S
SOMBRERO KEY               80      60/ 18/ 21 1018.4F
LONG KEY                   78 75  100/ 11/ 13 1019.5S
MOLASSES REEF              79 80   90/ 15/ 16 1019.6F

$$
FLZ067-068-071>074-168-172>174-181700-
SOUTHEAST FLORIDA 
  
CITY           SKY/WX    TMP DP  RH WIND       PRES   REMARKS
W PALM BEACH   PTSUNNY   80  63  55 E9        30.15S                  
BOCA RATON     MOSUNNY   81  66  61 E12       30.14S                  
FT LAUDER-EXEC FAIR      82  67  60 E12       30.13S                  
FT LAUDERDALE  FAIR      81  68  64 E9        30.12F                  
POMPANO BEACH  FAIR      82  65  56 E9        30.13S                  
PEMBROKE PINES PTSUNNY   82  66  58 E12       30.15R                  
OPA LOCKA      CLOUDY    82  67  60 E12       30.14S                  
MIAMI          PTSUNNY   80  67  64 E10       30.13S                  
WEST KENDALL   CLOUDY    81  66  60 SE10      30.13S                  
HOMESTEAD      FAIR      81  67  62 NE10      30.12S                  

STATION/POSITION SKY/WX   TEMP    WIND        PRES    WAVE   SWELL
                          AIR SEA DIR/SP/G            HT/PER HT/PER
                          (F)     (DEG/KT/KT) (MB)    (FT/S) (FT/S)
VIRGINIA KEY               79 78   60/  8/ 11 1020.0S
LAKE WORTH                 78 80  100/  8/ 12 1021.9R
FOWEY ROCKS                78 80   90/ 10/ 12 1020.8F
SETTLEMENT POINT           76      70/  6/  6 1020.9R

$$